Погода в Смирных

Россия / Сахалинская область     49°44′45″N   142°50′06″E
темп.,
°C
ветер,
м/с
пор.,
м/с
влажн.,
%
обл.,
%
осадки,
мм/ч
давл.,
гПа
погр.,
м
2 декабря, чт
чт223:000юз1399100 2.4 97096
02:000в119978 0.8 96785
05:00−5сз219999 0.8 96545
08:00−4сз61380100 1.8 9691154
11:00−6сз112079100 2.6 9771653
14:00−7зсз111981100 0.8 9821517
17:00−9зсз8178074 1.9 9891418
20:00−9з9167224 0.2 9941165
3 декабря, пт
пт323:00−10зюз514745 0.2 996612
02:00−10зюз4127024 0.0 999427
05:00−14з119291 0.0 100210
08:00−15з219452 0.0 100310
11:00−9сз118912 0.0 100445
14:00−5в1286100 0.1 1003276
17:00−7с1197100 0.1 100516
20:00−9зсз2294100 0.0 100615
4 декабря, сб
сб423:00−7сз2392100 0.0 100654
02:00−7сз3595100 0.3 1006246
05:00−8сз2394100 0.9 1008164
08:00−15сз339310 0.0 101040
11:00−14сз248854 0.0 1012140
14:00−11ссз2374100 0.0 1012542
17:00−14ссз2290100 0.0 101354
20:00−19зсз229436 0.0 101523
5 декабря, вс
вс523:00−19зсз229455 0.0 101625
02:00−20з32955 0.0 101622
05:00−21зсз22955 0.0 101718
08:00−20з229617 0.0 101721
11:00−15зюз119113 0.0 101778
14:00−10ююз257424 0.0 1016702
17:00−12юз268315 0.0 1015287
20:00−12зюз289063 0.1 1017370
6 декабря, пн
пн623:00−13зсз119733 0.1 101717
02:00−14з219530 0.0 101821
05:00−14з229411 0.0 101820
08:00−13з21955 0.0 101712
11:00−7ююз119199 0.0 101645
14:00−3юв139366 0.0 1012189
17:00−4ююз249247 0.0 1011114
20:00−3зюз398212 0.0 1010405